This demonstration page uses our WeatherBlox Daily Observations layout. Learn more.

40.92945, -100.16068

Hourly Observations for January 18, 2015

Temp ( °F °C ) Dew Point ( °F °C ) Humidity (%) Winds ( mph kmh ) Pressure ( in mb ) Visibility ( mi km ) Precip ( " mm )
12:15 am 00:15 Clear 24 -4.5 21 -6.1 89 89 NW 5 7 30.18 1022 10 16.0934 N/A
12:35 am 00:35 Clear 25 -4.1 21 -6 87 87 WNW 3 6 30.18 1022 10 16.0934 N/A
12:55 am 00:55 Clear 25 -4.1 21 -6.1 86 86 N 3 6 30.18 1022 10 16.0934 N/A
1:15 am 01:15 Clear 25 -4 22 -5.8 87 87 Calm 30.18 1022 10 16.0934 N/A
1:35 am 01:35 Clear 25 -3.7 22 -5.7 86 86 Calm 30.18 1022 10 16.0934 N/A
1:55 am 01:55 Clear 27 -2.7 24 -4.7 86 86 WSW 3 6 30.18 1022 10 16.0934 N/A
2:15 am 02:15 Clear 28 -2.2 23 -4.8 83 83 W 6 9 30.18 1022 10 16.0934 N/A
2:35 am 02:35 Clear 29 -1.5 23 -4.8 78 78 W 7 11 30.15 1021 10 16.0934 N/A
2:55 am 02:55 Clear 28 -2 23 -5.2 79 79 WNW 3 6 30.12 1020 10 16.0934 N/A
3:15 am 03:15 Clear 26 -3.1 22 -5.5 84 84 Calm 30.15 1021 10 16.0934 N/A
3:35 am 03:35 Clear 23 -4.8 19 -7 85 85 NNW 3 6 30.15 1021 10 16.0934 N/A
3:55 am 03:55 Clear 20 -6.8 17 -8.3 89 89 N 5 7 30.18 1022 10 16.0934 N/A
4:15 am 04:15 Clear 22 -5.7 19 -7 91 91 Calm 30.15 1021 10 16.0934 N/A
4:35 am 04:35 Clear 21 -5.9 19 -7.2 91 91 NNW 5 7 30.15 1021 10 16.0934 N/A
4:55 am 04:55 Clear 21 -6 19 -7.5 89 89 N 3 6 30.15 1021 10 16.0934 N/A
5:15 am 05:15 Clear 22 -5.6 19 -7.1 89 89 Calm 30.15 1021 10 16.0934 N/A
5:35 am 05:35 Clear 20 -6.5 18 -8 89 89 Calm 30.12 1020 10 16.0934 N/A
5:55 am 05:55 Clear 21 -6.2 18 -7.6 90 90 W 3 6 30.12 1020 10 16.0934 N/A
6:15 am 06:15 Clear 21 -6 19 -7.4 90 90 W 6 9 30.12 1020 10 16.0934 N/A
6:35 am 06:35 Clear 22 -5.3 20 -6.8 89 89 W 7 11 30.09 1019 10 16.0934 N/A
6:55 am 06:55 Clear 22 -5.5 19 -7.2 88 88 SSW 3 6 30.06 1018 10 16.0934 N/A
7:15 am 07:15 Clear 23 -5.2 20 -6.9 88 88 W 6 9 30.09 1019 10 16.0934 N/A
7:35 am 07:35 Clear 22 -5.5 19 -7.1 89 89 W 5 7 30.09 1019 10 16.0934 N/A
7:55 am 07:55 Clear 21 -6.2 18 -7.7 89 89 WNW 7 11 30.12 1020 10 16.0934 N/A
8:15 am 08:15 Sunny 22 -5.7 19 -7.2 89 89 NW 3 6 30.12 1020 10 16.0934 N/A
8:35 am 08:35 Sunny 23 -4.9 20 -6.5 89 89 NW 3 6 30.09 1019 10 16.0934 N/A
8:55 am 08:55 Sunny 26 -3.5 23 -5.1 89 89 NW 3 6 30.09 1019 10 16.0934 N/A
9:15 am 09:15 Sunny 29 -1.9 25 -3.9 86 86 WNW 5 7 30.06 1018 10 16.0934 N/A
9:35 am 09:35 Sunny 30 -0.9 26 -3.3 84 84 NW 5 7 30.06 1018 10 16.0934 N/A
9:55 am 09:55 Sunny 32 0 28 -2.5 83 83 NW 3 6 30.06 1018 10 16.0934 N/A
10:15 am 10:15 Sunny 34 0.9 28 -2.3 79 79 NW 7 11 30.03 1017 10 16.0934 N/A
10:35 am 10:35 Sunny 37 2.5 29 -1.5 75 75 WNW 9 15 30.06 1018 10 16.0934 N/A
10:55 am 10:55 Sunny 39 3.7 29 -1.6 69 69 WNW 13 20 30 1016 10 16.0934 N/A
11:15 am 11:15 Sunny 40 4.6 29 -1.7 64 64 WNW 14 22 30 1016 10 16.0934 N/A
11:35 am 11:35 Sunny 42 5.7 29 -1.4 61 61 WNW 15 24 30.03 1017 10 16.0934 N/A
11:55 am 11:55 Sunny 45 7.2 29 -1.6 54 54 WNW 15 24 30 1016 10 16.0934 N/A
12:15 pm 12:15 Sunny 46 7.7 29 -1.6 52 52 WNW 14 22 29.97 1015 10 16.0934 N/A
12:35 pm 12:35 Sunny 49 9.5 30 -1.1 48 48 NW 14 22 29.94 1014 10 16.0934 N/A
12:55 pm 12:55 Sunny 51 10.7 24 -4.6 34 34 NW 15 24 29.94 1014 10 16.0934 N/A
1:15 pm 13:15 Sunny 52 11 24 -4.6 33 33 NW 15 24 29.94 1014 10 16.0934 N/A
1:35 pm 13:35 Sunny 53 11.5 23 -4.8 32 32 NW 12 19 29.94 1014 10 16.0934 N/A
1:55 pm 13:55 Sunny 54 12.4 23 -5.1 29 29 NW 13 20 29.94 1014 10 16.0934 N/A
2:15 pm 14:15 Sunny 56 13.1 22 -5.8 27 27 NW 13 20 29.91 1013 10 16.0934 N/A
2:35 pm 14:35 Sunny 56 13.3 21 -5.9 26 26 NW 13 20 29.91 1013 10 16.0934 N/A
2:55 pm 14:55 Sunny 56 13.5 22 -5.4 27 27 WNW 9 15 29.91 1013 10 16.0934 N/A
3:15 pm 15:15 Sunny 56 13.6 20 -6.4 25 25 NW 12 19 29.91 1013 10 16.0934 N/A
3:35 pm 15:35 Sunny 57 14 22 -5.4 26 26 NW 9 15 29.91 1013 10 16.0934 N/A
3:55 pm 15:55 Sunny 57 14 22 -5.7 25 25 NW 10 17 29.91 1013 10 16.0934 N/A
4:15 pm 16:15 Sunny 55 12.5 23 -4.9 30 30 NW 8 13 29.91 1013 10 16.0934 N/A
4:35 pm 16:35 Sunny 52 11.1 24 -4.4 34 34 WNW 5 7 29.94 1014 10 16.0934 N/A
4:55 pm 16:55 Sunny 52 10.9 26 -3.6 36 36 WNW 3 6 29.97 1015 10 16.0934 N/A
5:15 pm 17:15 Sunny 50 10.1 24 -4.4 36 36 W 7 11 29.97 1015 10 16.0934 N/A
5:35 pm 17:35 Sunny 46 8 23 -5 40 40 WSW 5 7 30 1016 10 16.0934 N/A
5:55 pm 17:55 Clear 43 6.3 23 -4.9 45 45 W 5 7 30 1016 10 16.0934 N/A
6:15 pm 18:15 Clear 42 5.4 24 -4.7 49 49 W 6 9 30 1016 10 16.0934 N/A
6:35 pm 18:35 Clear 38 3.4 24 -4.6 56 56 W 6 9 30.06 1018 10 16.0934 N/A
6:55 pm 18:55 Clear 39 4 24 -4.5 54 54 W 10 17 30.03 1017 10 16.0934 N/A
7:15 pm 19:15 Clear 35 1.5 24 -4.5 65 65 W 6 9 30.06 1018 10 16.0934 N/A
7:35 pm 19:35 Clear 37 2.5 24 -4.5 60 60 W 7 11 30.06 1018 10 16.0934 N/A
7:55 pm 19:55 Clear 34 1.1 24 -4.5 67 67 WNW 6 9 30.06 1018 10 16.0934 N/A
8:15 pm 20:15 Clear 33 0.5 24 -4.2 71 71 WNW 5 7 30.06 1018 10 16.0934 N/A
8:35 pm 20:35 Clear 34 1 24 -4.2 69 69 WNW 3 6 30.06 1018 10 16.0934 N/A
8:55 pm 20:55 Clear 33 0.4 24 -4.2 72 72 W 3 6 30.09 1019 10 16.0934 N/A
9:15 pm 21:15 Clear 31 -0.6 24 -4.2 77 77 NW 5 7 30.09 1019 10 16.0934 N/A
9:35 pm 21:35 Clear 32 0.2 24 -4.6 70 70 Calm 30.09 1019 10 16.0934 N/A
9:55 pm 21:55 Clear 32 -0.1 24 -4.5 73 73 Calm 30.09 1019 10 16.0934 N/A
10:15 pm 22:15 Clear 31 -0.5 24 -4.3 76 76 NW 3 6 30.09 1019 10 16.0934 N/A
10:35 pm 22:35 Clear 31 -0.7 25 -4 79 79 NNW 3 6 30.09 1019 10 16.0934 N/A
10:55 pm 22:55 Clear 32 0.1 24 -4.2 73 73 Calm 30.09 1019 10 16.0934 N/A
11:15 pm 23:15 Clear 30 -1 25 -4 80 80 NW 6 9 30.09 1019 10 16.0934 N/A
11:35 pm 23:35 Clear 30 -0.9 25 -3.8 81 81 W 5 7 30.09 1019 10 16.0934 N/A
11:55 pm 23:55 Clear 30 -1.3 24 -4.2 81 81 W 6 9 30.09 1019 10 16.0934 N/A

Powered by AerisWeather